Weather History for Guatemala Aeropuertola Aurora, Guatemala

Change the Weather History Date:

Tuesday, January 14, 2014

  Actual Average Record
Temperature  
Mean Temperature 66 °F -  
Max Temperature 73 °F 73 °F - ()
Min Temperature 58 °F 54 °F - ()
Growing Degree Days 16 (Base 50)    
Moisture  
Dew Point 55 °F    
Average Humidity 71    
Maximum Humidity 94    
Minimum Humidity 43    
Precipitation  
Precipitation 0.00 in - - ()
Sea Level Pressure  
Sea Level Pressure 30.24 in    
Wind  
Wind Speed 9 mph ()    
Max Wind Speed 18 mph    
Max Gust Speed -    
Visibility 6.2 miles    
Events      
T = Trace of Precipitation, MM = Missing Value Source: Averaged Metar Reports

Daily Weather History Graph

Daily Weather History Graph

Search for Another Location

Airport:

Trip Planner

Search our weather history database for the weather conditions in past years. The results will help you decide how hot, cold, wet, or windy it might be!

Date:

Astronomy

Jan. 14, 2014 Rise Set
Actual Time 6:30 AM CST 5:51 PM CST
Civil Twilight 6:07 AM CST 6:14 PM CST
Nautical Twilight 5:41 AM CST 6:41 PM CST
Astronomical Twilight 5:15 AM CST 7:07 PM CST
Moon 4:52 PM CST (1/14) 5:09 AM CST (1/14)
Length of Visible Light 12h 07m
Length of Day
11h 21m
Waxing Gibbous, 98% of the Moon is Illuminated
Jan 14
Waxing Gibbous
Jan 15
Full
Jan 23
Last Quarter
Jan 30
New
Feb 6
First Quarter

Hourly Weather History & Observations

Time (CST) Temp. Dew Point Humidity Pressure Visibility Wind Dir Wind Speed Gust Speed Precip Events Conditions
12:00 AM 59.0 °F 55.4 °F 88% 30.30 in 6.2 mi North 4.6 mph - N/A   Scattered Clouds
1:00 AM 59.0 °F 55.4 °F 88% 30.30 in 6.2 mi North 6.9 mph - N/A   Scattered Clouds
2:00 AM 59.0 °F 55.4 °F 88% 30.27 in 6.2 mi North 9.2 mph - N/A   Mostly Cloudy
3:00 AM 59.0 °F 57.2 °F 94% 30.27 in 6.2 mi North 9.2 mph - N/A   Overcast
4:00 AM 59.0 °F 55.4 °F 88% 30.27 in 6.2 mi North 4.6 mph - N/A   Mostly Cloudy
5:00 AM 59.0 °F 55.4 °F 88% 30.27 in 6.2 mi North 4.6 mph - N/A   Mostly Cloudy
6:00 AM 58 °F 56 °F 93% 29.86 in 25 mi North 4.6 mph - -   Scattered Clouds
6:00 AM 59.0 °F 57.2 °F 94% 30.27 in 6.2 mi North 4.6 mph - N/A   Scattered Clouds
7:00 AM 59.0 °F 55.4 °F 88% 30.30 in 6.2 mi North 6.9 mph - N/A   Scattered Clouds
8:00 AM 62.6 °F 57.2 °F 82% 30.30 in 6.2 mi NNE 9.2 mph - N/A   Mostly Cloudy
9:00 AM 64.4 °F 57.2 °F 77% 30.33 in 6.2 mi NNE 16.1 mph - N/A   Scattered Clouds
10:00 AM 68.0 °F 57.2 °F 68% 30.33 in 6.2 mi NNE 13.8 mph - N/A   Scattered Clouds
11:00 AM 69.8 °F 55.4 °F 60% 30.30 in 6.2 mi North 18.4 mph - N/A   Scattered Clouds
12:00 PM 72 °F 54 °F 43% 29.97 in 25 mi North 16.1 mph - -   Partly Cloudy
12:00 PM 71.6 °F 53.6 °F 53% 30.27 in 6.2 mi North 16.1 mph - N/A   Scattered Clouds
1:00 PM 73.4 °F 51.8 °F 47% 30.24 in 6.2 mi North 13.8 mph - N/A   Scattered Clouds
2:00 PM 73.4 °F 51.8 °F 47% 30.21 in 6.2 mi NNW 11.5 mph - N/A   Scattered Clouds
3:00 PM 73.4 °F 51.8 °F 47% 30.21 in 6.2 mi NNE 13.8 mph - N/A   Scattered Clouds
4:00 PM 73.4 °F 51.8 °F 47% 30.18 in 6.2 mi North 13.8 mph - N/A   Partly Cloudy
5:00 PM 73.4 °F 53.6 °F 50% 30.21 in 6.2 mi NNE 13.8 mph - N/A   Partly Cloudy
6:00 PM 69.8 °F 53.6 °F 56% - 6.2 mi North 18.4 mph - N/A   Scattered Clouds
7:00 PM 66.2 °F 55.4 °F 68% 30.24 in 6.2 mi North 13.8 mph - N/A   Partly Cloudy
8:00 PM 64.4 °F 53.6 °F 68% 30.27 in 6.2 mi North 16.1 mph - N/A   Partly Cloudy
9:00 PM 62.6 °F 53.6 °F 72% 30.30 in 6.2 mi North 16.1 mph - N/A   Partly Cloudy
10:00 PM 62.6 °F 53.6 °F 72% 30.30 in 6.2 mi North 16.1 mph - N/A   Partly Cloudy
11:00 PM 60.8 °F 55.4 °F 82% 30.30 in 6.2 mi North 16.1 mph - N/A   Partly Cloudy